Weather History for Enid, OK

Change the Weather History Date:

Thursday, May 10, 2012

  Actual Average Record
Temperature  
Mean Temperature 65 °F -  
Max Temperature 84 °F 76 °F 93 °F (2014)
Min Temperature 46 °F 55 °F 46 °F (2012)
Growing Degree Days 15 (Base 50)    
Moisture  
Dew Point 51 °F    
Average Humidity 77    
Maximum Humidity 100    
Minimum Humidity 27    
Precipitation  
Precipitation 0.00 in - - ()
Sea Level Pressure  
Sea Level Pressure 29.91 in    
Wind  
Wind Speed 4 mph (South)    
Max Wind Speed 17 mph    
Max Gust Speed 22 mph    
Visibility 9 miles    
Events      
Averages and records for this station are not official NWS values.
T = Trace of Precipitation, MM = Missing Value Source: NWS Daily Summary

Daily Weather History Graph

Daily Weather History Graph

Search for Another Location

Airport:

Trip Planner

Search our weather history database for the weather conditions in past years. The results will help you decide how hot, cold, wet, or windy it might be!

Date:

Astronomy

May. 10, 2012 Rise Set
Actual Time 6:28 AM CDT 8:27 PM CDT
Civil Twilight 6:00 AM CDT 8:55 PM CDT
Nautical Twilight 5:25 AM CDT 9:30 PM CDT
Astronomical Twilight 4:48 AM CDT 10:07 PM CDT
Moon 12:26 AM CDT (5/10) 10:54 AM CDT (5/10)
Length of Visible Light 14h 55m
Length of Day
13h 58m
Waning Gibbous, 73% of the Moon is Illuminated
May 10
Waning Gibbous
May 12
Last Quarter
May 20
New
May 28
First Quarter
Jun 4
Full

Hourly Weather History & Observations

Time (CDT) Temp. Dew Point Humidity Pressure Visibility Wind Dir Wind Speed Gust Speed Precip Events Conditions
12:15 AM 55.4 °F 51.8 °F 88% 29.95 in 10.0 mi SSE 3.5 mph - N/A   Clear
12:35 AM 53.6 °F 51.8 °F 94% 29.95 in 10.0 mi Calm Calm - N/A   Clear
12:55 AM 55.4 °F 51.8 °F 88% 29.94 in 10.0 mi South 3.5 mph - N/A   Clear
1:15 AM 55.4 °F 51.8 °F 88% 29.94 in 10.0 mi SSE 4.6 mph - N/A   Clear
1:35 AM 53.6 °F 50.0 °F 88% 29.94 in 10.0 mi Calm Calm - N/A   Clear
1:55 AM 53.6 °F 50.0 °F 88% 29.94 in 10.0 mi SW 3.5 mph - N/A   Clear
2:15 AM 53.6 °F 50.0 °F 88% 29.93 in 10.0 mi SSW 3.5 mph - N/A   Clear
2:35 AM 51.8 °F 50.0 °F 94% 29.92 in 10.0 mi South 3.5 mph - N/A   Clear
2:55 AM 51.8 °F 50.0 °F 94% 29.92 in 10.0 mi Calm Calm - N/A   Clear
3:15 AM 51.8 °F 50.0 °F 94% 29.92 in 10.0 mi Calm Calm - N/A   Clear
3:35 AM 50.0 °F 50.0 °F 100% 29.91 in 10.0 mi South 3.5 mph - N/A   Clear
3:55 AM 50.0 °F 50.0 °F 100% 29.92 in 10.0 mi Calm Calm - N/A   Clear
4:15 AM 50.0 °F 48.2 °F 94% 29.92 in 10.0 mi Calm Calm - N/A   Clear
4:55 AM 48.2 °F 46.4 °F 93% 29.91 in 7.0 mi Calm Calm - N/A   Clear
5:15 AM 50.0 °F 48.2 °F 94% 29.91 in 7.0 mi Calm Calm - N/A   Clear
5:35 AM 48.2 °F 46.4 °F 93% 29.92 in 7.0 mi Calm Calm - N/A   Clear
5:55 AM 46.4 °F 46.4 °F 100% 29.92 in 5.0 mi Calm Calm - N/A   Clear
6:20 AM 48.2 °F 48.2 °F 100% 29.91 in 7.0 mi SSW 5.8 mph - N/A   Clear
6:50 AM 48.2 °F 46.4 °F 93% 29.91 in 7.0 mi South 5.8 mph - N/A   Clear
7:50 AM 55.4 °F 55.4 °F 100% 29.93 in 7.0 mi South 5.8 mph - N/A   Clear
8:50 AM 60.8 °F 53.6 °F 77% 29.94 in 10.0 mi SSW 8.1 mph - N/A   Partly Cloudy
9:50 AM 71.6 °F 51.8 °F 50% 29.94 in 10.0 mi SSW 9.2 mph - N/A   Partly Cloudy
10:50 AM 77.0 °F 50.0 °F 39% 29.93 in 10.0 mi SSW 16.1 mph - N/A   Partly Cloudy
11:55 AM 80.6 °F 50.0 °F 34% 29.92 in 10.0 mi SW 13.8 mph - N/A   Partly Cloudy
12:50 PM 84.2 °F 48.2 °F 29% 29.89 in 10.0 mi SSW 11.5 mph - N/A   Partly Cloudy
1:55 PM 84.2 °F 46.4 °F 27% 29.86 in 10.0 mi South 11.5 mph - N/A   Partly Cloudy
2:59 PM 84.2 °F 50.0 °F 30% 29.85 in 10.0 mi SSE 13.8 mph - N/A   Scattered Clouds
4:55 PM 84.2 °F 48.2 °F 29% 29.83 in 10.0 mi SSE 17.3 mph 21.9 mph N/A   Scattered Clouds
6:50 PM 80.6 °F 48.2 °F 32% 29.84 in 10.0 mi South 13.8 mph - N/A   Scattered Clouds
8:50 PM 66.2 °F 55.4 °F 68% 29.86 in 10.0 mi ESE 6.9 mph - N/A   Mostly Cloudy
9:15 PM 62.6 °F 53.6 °F 72% 29.87 in 10.0 mi SE 6.9 mph - N/A   Clear
9:35 PM 60.8 °F 53.6 °F 77% 29.88 in 10.0 mi SSE 4.6 mph - N/A   Clear
9:55 PM 60.8 °F 53.6 °F 77% 29.89 in 10.0 mi South 4.6 mph - N/A   Clear
10:15 PM 60.8 °F 53.6 °F 77% 29.90 in 10.0 mi SE 4.6 mph - N/A   Clear
10:35 PM 59.0 °F 53.6 °F 82% 29.90 in 10.0 mi SE 5.8 mph - N/A   Clear
10:55 PM 59.0 °F 53.6 °F 82% 29.90 in 10.0 mi Calm Calm - N/A   Clear
11:15 PM 59.0 °F 53.6 °F 82% 29.90 in 10.0 mi Calm Calm - N/A   Clear
11:35 PM 59.0 °F 53.6 °F 82% 29.90 in 10.0 mi Calm Calm - N/A   Clear
11:55 PM 59.0 °F 53.6 °F 82% 29.91 in 10.0 mi Calm Calm - N/A   Clear